Year,Month,Day,Hour,Minute,Value (Times are PST for temperature in C)
2014,04,13,00,00,7.70
2014,04,13,00,01,7.70
2014,04,13,00,02,7.60
2014,04,13,00,03,7.60
2014,04,13,00,04,7.50
2014,04,13,00,05,7.40
2014,04,13,00,06,7.40
2014,04,13,00,07,7.40
2014,04,13,00,08,7.40
2014,04,13,00,09,7.40
2014,04,13,00,10,7.40
2014,04,13,00,11,7.50
2014,04,13,00,12,7.50
2014,04,13,00,13,7.50
2014,04,13,00,14,7.50
2014,04,13,00,15,7.50
2014,04,13,00,16,7.50
2014,04,13,00,17,7.50
2014,04,13,00,18,7.50
2014,04,13,00,19,7.40
2014,04,13,00,20,7.40
2014,04,13,00,21,7.30
2014,04,13,00,22,7.30
2014,04,13,00,23,7.40
2014,04,13,00,24,7.40
2014,04,13,00,25,7.40
2014,04,13,00,26,7.40
2014,04,13,00,27,7.40
2014,04,13,00,28,7.40
2014,04,13,00,29,7.50
2014,04,13,00,30,7.70
2014,04,13,00,31,7.80
2014,04,13,00,32,7.80
2014,04,13,00,33,7.80
2014,04,13,00,34,7.80
2014,04,13,00,35,7.80
2014,04,13,00,36,7.70
2014,04,13,00,37,7.70
2014,04,13,00,38,7.60
2014,04,13,00,39,7.60
2014,04,13,00,40,7.60
2014,04,13,00,41,7.60
2014,04,13,00,42,7.60
2014,04,13,00,43,7.50
2014,04,13,00,44,7.40
2014,04,13,00,45,7.40
2014,04,13,00,46,7.30
2014,04,13,00,47,7.30
2014,04,13,00,48,7.20
2014,04,13,00,49,7.10
2014,04,13,00,50,7.10
2014,04,13,00,51,7.20
2014,04,13,00,52,7.20
2014,04,13,00,53,7.10
2014,04,13,00,54,7.10
2014,04,13,00,55,7.00
2014,04,13,00,56,7.00
2014,04,13,00,57,7.00
2014,04,13,00,58,7.10
2014,04,13,00,59,7.10
2014,04,13,01,00,7.10
2014,04,13,01,01,7.00
2014,04,13,01,02,6.90
2014,04,13,01,03,6.80
2014,04,13,01,04,6.70
2014,04,13,01,05,6.60
2014,04,13,01,06,6.50
2014,04,13,01,07,6.40
2014,04,13,01,08,6.40
2014,04,13,01,09,6.30
2014,04,13,01,10,6.30
2014,04,13,01,11,6.20
2014,04,13,01,12,6.20
2014,04,13,01,13,6.20
2014,04,13,01,14,6.20
2014,04,13,01,15,6.10
2014,04,13,01,16,6.10
2014,04,13,01,17,6.10
2014,04,13,01,18,6.10
2014,04,13,01,19,6.10
2014,04,13,01,20,6.20
2014,04,13,01,21,6.30
2014,04,13,01,22,6.30
2014,04,13,01,23,6.40
2014,04,13,01,24,6.40
2014,04,13,01,25,6.40
2014,04,13,01,26,6.40
2014,04,13,01,27,6.30
2014,04,13,01,28,6.30
2014,04,13,01,29,6.20
2014,04,13,01,30,6.20
2014,04,13,01,31,6.20
2014,04,13,01,32,6.20
2014,04,13,01,33,6.10
2014,04,13,01,34,6.10
2014,04,13,01,35,6.00
2014,04,13,01,36,6.00
2014,04,13,01,37,6.10
2014,04,13,01,38,6.10
2014,04,13,01,39,6.20
2014,04,13,01,40,6.30
2014,04,13,01,41,6.30
2014,04,13,01,42,6.30
2014,04,13,01,43,6.30
2014,04,13,01,44,6.30
2014,04,13,01,45,6.30
2014,04,13,01,46,6.30
2014,04,13,01,47,6.20
2014,04,13,01,48,6.20
2014,04,13,01,49,6.10
2014,04,13,01,50,6.00
2014,04,13,01,51,6.00
2014,04,13,01,52,6.00
2014,04,13,01,53,6.00
2014,04,13,01,54,6.00
2014,04,13,01,55,5.90
2014,04,13,01,56,5.90
2014,04,13,01,57,5.90
2014,04,13,01,58,5.90
2014,04,13,01,59,5.90
2014,04,13,02,00,5.80
2014,04,13,02,01,5.80
2014,04,13,02,02,5.80
2014,04,13,02,03,5.80
2014,04,13,02,04,5.70
2014,04,13,02,05,5.70
2014,04,13,02,06,5.70
2014,04,13,02,07,5.60
2014,04,13,02,08,5.60
2014,04,13,02,09,5.60
2014,04,13,02,10,5.60
2014,04,13,02,11,5.60
2014,04,13,02,12,5.70
2014,04,13,02,13,5.70
2014,04,13,02,14,5.70
2014,04,13,02,15,5.80
2014,04,13,02,16,5.80
2014,04,13,02,17,5.90
2014,04,13,02,18,6.00
2014,04,13,02,19,6.10
2014,04,13,02,20,6.20
2014,04,13,02,21,6.30
2014,04,13,02,22,6.30
2014,04,13,02,23,6.30
2014,04,13,02,24,6.30
2014,04,13,02,25,6.30
2014,04,13,02,26,6.30
2014,04,13,02,27,6.40
2014,04,13,02,28,6.30
2014,04,13,02,29,6.30
2014,04,13,02,30,6.20
2014,04,13,02,31,6.10
2014,04,13,02,32,5.90
2014,04,13,02,33,5.90
2014,04,13,02,34,5.80
2014,04,13,02,35,5.70
2014,04,13,02,36,5.70
2014,04,13,02,37,5.60
2014,04,13,02,38,5.60
2014,04,13,02,39,5.50
2014,04,13,02,40,5.40
2014,04,13,02,41,5.30
2014,04,13,02,42,5.30
2014,04,13,02,43,5.30
2014,04,13,02,44,5.30
2014,04,13,02,45,5.30
2014,04,13,02,46,5.40
2014,04,13,02,47,5.30
2014,04,13,02,48,5.30
2014,04,13,02,49,5.30
2014,04,13,02,50,5.20
2014,04,13,02,51,5.20
2014,04,13,02,52,5.20
2014,04,13,02,53,5.30
2014,04,13,02,54,5.30
2014,04,13,02,55,5.20
2014,04,13,02,56,5.20
2014,04,13,02,57,5.20
2014,04,13,02,58,5.20
2014,04,13,02,59,5.20
2014,04,13,03,00,5.20
2014,04,13,03,01,5.30
2014,04,13,03,02,5.30
2014,04,13,03,03,5.50
2014,04,13,03,04,5.50
2014,04,13,03,05,5.60
2014,04,13,03,06,5.60
2014,04,13,03,07,5.60
2014,04,13,03,08,5.60
2014,04,13,03,09,5.50
2014,04,13,03,10,5.50
2014,04,13,03,11,5.40
2014,04,13,03,12,5.30
2014,04,13,03,13,5.30
2014,04,13,03,14,5.30
2014,04,13,03,15,5.30
2014,04,13,03,16,5.20
2014,04,13,03,17,5.20
2014,04,13,03,18,5.20
2014,04,13,03,19,5.30
2014,04,13,03,20,5.30
2014,04,13,03,21,5.40
2014,04,13,03,22,5.50
2014,04,13,03,23,5.50
2014,04,13,03,24,5.60
2014,04,13,03,25,5.60
2014,04,13,03,26,5.60
2014,04,13,03,27,5.60
2014,04,13,03,28,5.60
2014,04,13,03,29,5.50
2014,04,13,03,30,5.50
2014,04,13,03,31,5.40
2014,04,13,03,32,5.30
2014,04,13,03,33,5.30
2014,04,13,03,34,5.20
2014,04,13,03,35,5.20
2014,04,13,03,36,5.10
2014,04,13,03,37,5.00
2014,04,13,03,38,5.00
2014,04,13,03,39,4.90
2014,04,13,03,40,4.90
2014,04,13,03,41,4.90
2014,04,13,03,42,4.90
2014,04,13,03,43,4.80
2014,04,13,03,44,4.80
2014,04,13,03,45,4.80
2014,04,13,03,46,4.80
2014,04,13,03,47,4.80
2014,04,13,03,48,4.80
2014,04,13,03,49,4.80
2014,04,13,03,50,4.70
2014,04,13,03,51,4.70
2014,04,13,03,52,4.70
2014,04,13,03,53,4.70
2014,04,13,03,54,4.70
2014,04,13,03,55,4.60
2014,04,13,03,56,4.50
2014,04,13,03,57,4.50
2014,04,13,03,58,4.40
2014,04,13,03,59,4.40
2014,04,13,04,00,4.40
2014,04,13,04,01,4.40
2014,04,13,04,02,4.40
2014,04,13,04,03,4.40
2014,04,13,04,04,4.40
2014,04,13,04,05,4.30
2014,04,13,04,06,4.30
2014,04,13,04,07,4.30
2014,04,13,04,08,4.20
2014,04,13,04,09,4.20
2014,04,13,04,10,4.20
2014,04,13,04,11,4.20
2014,04,13,04,12,4.20
2014,04,13,04,13,4.30
2014,04,13,04,14,4.30
2014,04,13,04,15,4.40
2014,04,13,04,16,4.50
2014,04,13,04,17,4.60
2014,04,13,04,18,4.70
2014,04,13,04,19,4.70
2014,04,13,04,20,4.80
2014,04,13,04,21,4.80
2014,04,13,04,22,4.70
2014,04,13,04,23,4.70
2014,04,13,04,24,4.70
2014,04,13,04,25,4.60
2014,04,13,04,26,4.60
2014,04,13,04,27,4.60
2014,04,13,04,28,4.60
2014,04,13,04,29,4.60
2014,04,13,04,30,4.60
2014,04,13,04,31,4.70
2014,04,13,04,32,4.70
2014,04,13,04,33,4.60
2014,04,13,04,34,4.60
2014,04,13,04,35,4.50
2014,04,13,04,36,4.50
2014,04,13,04,37,4.40
2014,04,13,04,38,4.40
2014,04,13,04,39,4.30
2014,04,13,04,40,4.30
2014,04,13,04,41,4.30
2014,04,13,04,42,4.30
2014,04,13,04,43,4.30
2014,04,13,04,44,4.20
2014,04,13,04,45,4.20
2014,04,13,04,46,4.20
2014,04,13,04,47,4.10
2014,04,13,04,48,4.20
2014,04,13,04,49,4.20
2014,04,13,04,50,4.30
2014,04,13,04,51,4.40
2014,04,13,04,52,4.50
2014,04,13,04,53,4.50
2014,04,13,04,54,4.50
2014,04,13,04,55,4.40
2014,04,13,04,56,4.30
2014,04,13,04,57,4.20
2014,04,13,04,58,4.10
2014,04,13,04,59,4.00
2014,04,13,05,00,3.90
2014,04,13,05,01,3.80
2014,04,13,05,02,3.70
2014,04,13,05,03,3.60
2014,04,13,05,04,3.60
2014,04,13,05,05,3.50
2014,04,13,05,06,3.50
2014,04,13,05,07,3.50
2014,04,13,05,08,3.50
2014,04,13,05,09,3.60
2014,04,13,05,10,3.70
2014,04,13,05,11,3.80
2014,04,13,05,12,3.80
2014,04,13,05,13,3.80
2014,04,13,05,14,3.80
2014,04,13,05,15,3.80
2014,04,13,05,16,3.70
2014,04,13,05,17,3.60
2014,04,13,05,18,3.60
2014,04,13,05,19,3.50
2014,04,13,05,20,3.60
2014,04,13,05,21,3.60
2014,04,13,05,22,3.60
2014,04,13,05,23,3.70
2014,04,13,05,24,3.70
2014,04,13,05,25,3.80
2014,04,13,05,26,3.80
2014,04,13,05,27,3.80
2014,04,13,05,28,3.90
2014,04,13,05,29,4.00
2014,04,13,05,30,4.10
2014,04,13,05,31,4.20
2014,04,13,05,32,4.10
2014,04,13,05,33,4.00
2014,04,13,05,34,3.90
2014,04,13,05,35,3.70
2014,04,13,05,36,3.60
2014,04,13,05,37,3.50
2014,04,13,05,38,3.30
2014,04,13,05,39,3.30
2014,04,13,05,40,3.30
2014,04,13,05,41,3.30
2014,04,13,05,42,3.40
2014,04,13,05,43,3.40
2014,04,13,05,44,3.40
2014,04,13,05,45,3.40
2014,04,13,05,46,3.40
2014,04,13,05,47,3.40
2014,04,13,05,48,3.30
2014,04,13,05,49,3.30
2014,04,13,05,50,3.20
2014,04,13,05,51,3.20
2014,04,13,05,52,3.10
2014,04,13,05,53,3.10
2014,04,13,05,54,3.00
2014,04,13,05,55,3.00
2014,04,13,05,56,2.90
2014,04,13,05,57,2.90
2014,04,13,05,58,2.80
2014,04,13,05,59,2.80
2014,04,13,06,00,2.80
2014,04,13,06,01,2.80
2014,04,13,06,02,2.80
2014,04,13,06,03,2.70
2014,04,13,06,04,2.70
2014,04,13,06,05,2.70
2014,04,13,06,06,2.70
2014,04,13,06,07,2.70
2014,04,13,06,08,2.70
2014,04,13,06,09,2.70
2014,04,13,06,10,2.70
2014,04,13,06,11,2.70
2014,04,13,06,12,2.70
2014,04,13,06,13,2.60
2014,04,13,06,14,2.60
2014,04,13,06,15,2.60
2014,04,13,06,16,2.60
2014,04,13,06,17,2.60
2014,04,13,06,18,2.60
2014,04,13,06,19,2.60
2014,04,13,06,20,2.60
2014,04,13,06,21,2.60
2014,04,13,06,22,2.60
2014,04,13,06,23,2.60
2014,04,13,06,24,2.70
2014,04,13,06,25,2.70
2014,04,13,06,26,2.70
2014,04,13,06,27,2.70
2014,04,13,06,28,2.70
2014,04,13,06,29,2.70
2014,04,13,06,30,2.70
2014,04,13,06,31,2.70
2014,04,13,06,32,2.70
2014,04,13,06,33,2.60
2014,04,13,06,34,2.60
2014,04,13,06,35,2.60
2014,04,13,06,36,2.60
2014,04,13,06,37,2.60
2014,04,13,06,38,2.60
2014,04,13,06,39,2.60
2014,04,13,06,40,2.60
2014,04,13,06,41,2.60
2014,04,13,06,42,2.60
2014,04,13,06,43,2.70
2014,04,13,06,44,2.70
2014,04,13,06,45,2.70
2014,04,13,06,46,2.70
2014,04,13,06,47,2.70
2014,04,13,06,48,2.70
2014,04,13,06,49,2.70
2014,04,13,06,50,2.80
2014,04,13,06,51,2.80
2014,04,13,06,52,2.80
2014,04,13,06,53,2.90
2014,04,13,06,54,2.90
2014,04,13,06,55,3.00
2014,04,13,06,56,3.00
2014,04,13,06,57,3.10
2014,04,13,06,58,3.20
2014,04,13,06,59,3.30
2014,04,13,07,00,3.30
2014,04,13,07,01,3.30
2014,04,13,07,02,3.30
2014,04,13,07,03,3.40
2014,04,13,07,04,3.40
2014,04,13,07,05,3.40
2014,04,13,07,06,3.30
2014,04,13,07,07,3.30
2014,04,13,07,08,3.30
2014,04,13,07,09,3.20
2014,04,13,07,10,3.20
2014,04,13,07,11,3.20
2014,04,13,07,12,3.20
2014,04,13,07,13,3.20
2014,04,13,07,14,3.30
2014,04,13,07,15,3.40
2014,04,13,07,16,3.50
2014,04,13,07,17,3.60
2014,04,13,07,18,3.70
2014,04,13,07,19,3.80
2014,04,13,07,20,3.90
2014,04,13,07,21,4.00
2014,04,13,07,22,4.10
2014,04,13,07,23,4.10
2014,04,13,07,24,4.10
2014,04,13,07,25,4.10
2014,04,13,07,26,4.00
2014,04,13,07,27,4.00
2014,04,13,07,28,3.90
2014,04,13,07,29,3.80
2014,04,13,07,30,3.80
2014,04,13,07,31,3.80
2014,04,13,07,32,3.80
2014,04,13,07,33,3.90
2014,04,13,07,34,4.00
2014,04,13,07,35,4.00
2014,04,13,07,36,4.00
2014,04,13,07,37,4.00
2014,04,13,07,38,4.00
2014,04,13,07,39,4.00
2014,04,13,07,40,4.10
2014,04,13,07,41,4.10
2014,04,13,07,42,4.10
2014,04,13,07,43,4.20
2014,04,13,07,44,4.20
2014,04,13,07,45,4.30
2014,04,13,07,46,4.40
2014,04,13,07,47,4.40
2014,04,13,07,48,4.50
2014,04,13,07,49,4.50
2014,04,13,07,50,4.60
2014,04,13,07,51,4.60
2014,04,13,07,52,4.70
2014,04,13,07,53,4.70
2014,04,13,07,54,4.80
2014,04,13,07,55,4.80
2014,04,13,07,56,4.90
2014,04,13,07,57,5.00
2014,04,13,07,58,5.10
2014,04,13,07,59,5.10
2014,04,13,08,00,5.20
2014,04,13,08,01,5.30
2014,04,13,08,02,5.40
2014,04,13,08,03,5.50
2014,04,13,08,04,5.60
2014,04,13,08,05,5.60
2014,04,13,08,06,5.70
2014,04,13,08,07,5.80
2014,04,13,08,08,5.90
2014,04,13,08,09,6.10
2014,04,13,08,10,6.20
2014,04,13,08,11,6.30
2014,04,13,08,12,6.40
2014,04,13,08,13,6.50
2014,04,13,08,14,6.60
2014,04,13,08,15,6.70
2014,04,13,08,16,6.70
2014,04,13,08,17,6.80
2014,04,13,08,18,6.90
2014,04,13,08,19,7.00
2014,04,13,08,20,7.10
2014,04,13,08,21,7.10
2014,04,13,08,22,7.20
2014,04,13,08,23,7.30
2014,04,13,08,24,7.30
2014,04,13,08,25,7.40
2014,04,13,08,26,7.50
2014,04,13,08,27,7.60
2014,04,13,08,28,7.70
2014,04,13,08,29,7.80
2014,04,13,08,30,8.00
2014,04,13,08,31,8.10
2014,04,13,08,32,8.30
2014,04,13,08,33,8.50
2014,04,13,08,34,8.70
2014,04,13,08,35,8.90
2014,04,13,08,36,9.00
2014,04,13,08,37,9.20
2014,04,13,08,38,9.40
2014,04,13,08,39,9.60
2014,04,13,08,40,9.70
2014,04,13,08,41,9.80
2014,04,13,08,42,9.90
2014,04,13,08,43,10.00
2014,04,13,08,44,10.10
2014,04,13,08,45,10.10
2014,04,13,08,46,10.10
2014,04,13,08,47,10.10
2014,04,13,08,48,10.10
2014,04,13,08,49,10.10
2014,04,13,08,50,10.10
2014,04,13,08,51,10.10
2014,04,13,08,52,10.30
2014,04,13,08,53,10.40
2014,04,13,08,54,10.40
2014,04,13,08,55,10.40
2014,04,13,08,56,10.40
2014,04,13,08,57,10.30
2014,04,13,08,58,10.30
2014,04,13,08,59,10.30
2014,04,13,09,00,10.30
2014,04,13,09,01,10.40
2014,04,13,09,02,10.40
2014,04,13,09,03,10.30
2014,04,13,09,04,10.30
2014,04,13,09,05,10.30
2014,04,13,09,06,10.30
2014,04,13,09,07,10.20
2014,04,13,09,08,10.20
2014,04,13,09,09,10.20
2014,04,13,09,10,10.20
2014,04,13,09,11,10.20
2014,04,13,09,12,10.20
2014,04,13,09,13,10.30
2014,04,13,09,14,10.30
2014,04,13,09,15,10.30
2014,04,13,09,16,10.40
2014,04,13,09,17,10.40
2014,04,13,09,18,10.30
2014,04,13,09,19,10.30
2014,04,13,09,20,10.30
2014,04,13,09,21,10.30
2014,04,13,09,22,10.30
2014,04,13,09,23,10.30
2014,04,13,09,24,10.30
2014,04,13,09,25,10.20
2014,04,13,09,26,10.20
2014,04,13,09,27,10.20
2014,04,13,09,28,10.20
2014,04,13,09,29,10.20
2014,04,13,09,30,10.10
2014,04,13,09,31,10.10
2014,04,13,09,32,10.10
2014,04,13,09,33,10.20
2014,04,13,09,34,10.20
2014,04,13,09,35,10.20
2014,04,13,09,36,10.20
2014,04,13,09,37,10.20
2014,04,13,09,38,10.30
2014,04,13,09,39,10.30
2014,04,13,09,40,10.30
2014,04,13,09,41,10.40
2014,04,13,09,42,10.40
2014,04,13,09,43,10.40
2014,04,13,09,44,10.30
2014,04,13,09,45,10.30
2014,04,13,09,46,10.30
2014,04,13,09,47,10.30
2014,04,13,09,48,10.30
2014,04,13,09,49,10.30
2014,04,13,09,50,10.30
2014,04,13,09,51,10.30
2014,04,13,09,52,10.30
2014,04,13,09,53,10.30
2014,04,13,09,54,10.30
2014,04,13,09,55,10.30
2014,04,13,09,56,10.30
2014,04,13,09,57,10.30
2014,04,13,09,58,10.40
2014,04,13,09,59,10.40
2014,04,13,10,00,10.40
2014,04,13,10,01,10.40
2014,04,13,10,02,10.40
2014,04,13,10,03,10.40
2014,04,13,10,04,10.40
2014,04,13,10,05,10.40
2014,04,13,10,06,10.40
2014,04,13,10,07,10.40
2014,04,13,10,08,10.40
2014,04,13,10,09,10.40
2014,04,13,10,10,10.50
2014,04,13,10,11,10.50
2014,04,13,10,12,10.50
2014,04,13,10,13,10.50
2014,04,13,10,14,10.50
2014,04,13,10,15,10.40
2014,04,13,10,16,10.40
2014,04,13,10,17,10.40
2014,04,13,10,18,10.40
2014,04,13,10,19,10.40
2014,04,13,10,20,10.40
2014,04,13,10,21,10.40
2014,04,13,10,22,10.40
2014,04,13,10,23,10.40
2014,04,13,10,24,10.40
2014,04,13,10,25,10.40
2014,04,13,10,26,10.40
2014,04,13,10,27,10.40
2014,04,13,10,28,10.40
2014,04,13,10,29,10.40
2014,04,13,10,30,10.40
2014,04,13,10,31,10.40
2014,04,13,10,32,10.40
2014,04,13,10,33,10.50
2014,04,13,10,34,10.40
2014,04,13,10,35,10.40
2014,04,13,10,36,10.40
2014,04,13,10,37,10.40
2014,04,13,10,38,10.30
2014,04,13,10,39,10.30
2014,04,13,10,40,10.30
2014,04,13,10,41,10.30
2014,04,13,10,42,10.30
2014,04,13,10,43,10.40
2014,04,13,10,44,10.40
2014,04,13,10,45,10.40
2014,04,13,10,46,10.40
2014,04,13,10,47,10.40
2014,04,13,10,48,10.50
2014,04,13,10,49,10.50
2014,04,13,10,50,10.50
2014,04,13,10,51,10.40
2014,04,13,10,52,10.40
2014,04,13,10,53,10.40
2014,04,13,10,54,10.40
2014,04,13,10,55,10.40
2014,04,13,10,56,10.40
2014,04,13,10,57,10.50
2014,04,13,10,58,10.50
2014,04,13,10,59,10.60
2014,04,13,11,00,10.60
2014,04,13,11,01,10.70
2014,04,13,11,02,10.70
2014,04,13,11,03,10.70
2014,04,13,11,04,10.70
2014,04,13,11,05,10.70
2014,04,13,11,06,10.70
2014,04,13,11,07,10.70
2014,04,13,11,08,10.70
2014,04,13,11,09,10.70
2014,04,13,11,10,10.70
2014,04,13,11,11,10.80
2014,04,13,11,12,10.80
2014,04,13,11,13,10.80
2014,04,13,11,14,10.80
2014,04,13,11,15,10.80
2014,04,13,11,16,10.70
2014,04,13,11,17,10.80
2014,04,13,11,18,10.80
2014,04,13,11,19,10.90
2014,04,13,11,20,10.90
2014,04,13,11,21,10.90
2014,04,13,11,22,10.90
2014,04,13,11,23,10.80
2014,04,13,11,24,10.80
2014,04,13,11,25,10.80
2014,04,13,11,26,10.80
2014,04,13,11,27,10.80
2014,04,13,11,28,10.80
2014,04,13,11,29,10.80
2014,04,13,11,30,10.80
2014,04,13,11,31,10.80
2014,04,13,11,32,10.80
2014,04,13,11,33,10.80
2014,04,13,11,34,10.80
2014,04,13,11,35,10.80
2014,04,13,11,36,10.80
2014,04,13,11,37,10.70
2014,04,13,11,38,10.70
2014,04,13,11,39,10.70
2014,04,13,11,40,10.70
2014,04,13,11,41,10.70
2014,04,13,11,42,10.70
2014,04,13,11,43,10.70
2014,04,13,11,44,10.70
2014,04,13,11,45,10.60
2014,04,13,11,46,10.70
2014,04,13,11,47,10.70
2014,04,13,11,48,10.70
2014,04,13,11,49,10.70
2014,04,13,11,50,10.70
2014,04,13,11,51,10.70
2014,04,13,11,52,10.70
2014,04,13,11,53,10.80
2014,04,13,11,54,10.80
2014,04,13,11,55,10.80
2014,04,13,11,56,10.90
2014,04,13,11,57,11.00
2014,04,13,11,58,11.00
2014,04,13,11,59,11.10
2014,04,13,12,00,11.20
2014,04,13,12,01,11.20
2014,04,13,12,02,11.30
2014,04,13,12,03,11.40
2014,04,13,12,04,11.40
2014,04,13,12,05,11.40
2014,04,13,12,06,11.50
2014,04,13,12,07,11.50
2014,04,13,12,08,11.50
2014,04,13,12,09,11.60
2014,04,13,12,10,11.60
2014,04,13,12,11,11.60
2014,04,13,12,12,11.70
2014,04,13,12,13,11.70
2014,04,13,12,14,11.70
2014,04,13,12,15,11.70
2014,04,13,12,16,11.70
2014,04,13,12,17,11.60
2014,04,13,12,18,11.60
2014,04,13,12,19,11.60
2014,04,13,12,20,11.60
2014,04,13,12,21,11.60
2014,04,13,12,22,11.60
2014,04,13,12,23,11.60
2014,04,13,12,24,11.60
2014,04,13,12,25,11.70
2014,04,13,12,26,11.70
2014,04,13,12,27,11.70
2014,04,13,12,28,11.70
2014,04,13,12,29,11.70
2014,04,13,12,30,11.60
2014,04,13,12,31,11.70
2014,04,13,12,32,11.70
2014,04,13,12,33,11.70
2014,04,13,12,34,11.70
2014,04,13,12,35,11.70
2014,04,13,12,36,11.60
2014,04,13,12,37,11.60
2014,04,13,12,38,11.60
2014,04,13,12,39,11.60
2014,04,13,12,40,11.60
2014,04,13,12,41,11.60
2014,04,13,12,42,11.70
2014,04,13,12,43,11.70
2014,04,13,12,44,11.70
2014,04,13,12,45,11.80
2014,04,13,12,46,11.80
2014,04,13,12,47,11.80
2014,04,13,12,48,11.80
2014,04,13,12,49,11.80
2014,04,13,12,50,11.90
2014,04,13,12,51,12.00
2014,04,13,12,52,12.00
2014,04,13,12,53,12.00
2014,04,13,12,54,12.00
2014,04,13,12,55,12.10
2014,04,13,12,56,12.10
2014,04,13,12,57,12.10
2014,04,13,12,58,12.10
2014,04,13,12,59,12.20
2014,04,13,13,00,12.20
2014,04,13,13,01,12.20
2014,04,13,13,02,12.30
2014,04,13,13,03,12.30
2014,04,13,13,04,12.30
2014,04,13,13,05,12.30
2014,04,13,13,06,12.30
2014,04,13,13,07,12.30
2014,04,13,13,08,12.20
2014,04,13,13,09,12.20
2014,04,13,13,10,12.20
2014,04,13,13,11,12.20
2014,04,13,13,12,12.20
2014,04,13,13,13,12.20
2014,04,13,13,14,12.20
2014,04,13,13,15,12.20
2014,04,13,13,16,12.20
2014,04,13,13,17,12.20
2014,04,13,13,18,12.20
2014,04,13,13,19,12.20
2014,04,13,13,20,12.20
2014,04,13,13,21,12.20
2014,04,13,13,22,12.20
2014,04,13,13,23,12.30
2014,04,13,13,24,12.30
2014,04,13,13,25,12.30
2014,04,13,13,26,12.20
2014,04,13,13,27,12.20
2014,04,13,13,28,12.20
2014,04,13,13,29,12.30
2014,04,13,13,30,12.30
2014,04,13,13,31,12.40
2014,04,13,13,32,12.40
2014,04,13,13,33,12.40
2014,04,13,13,34,12.50
2014,04,13,13,35,12.50
2014,04,13,13,36,12.40
2014,04,13,13,37,12.40
2014,04,13,13,38,12.40
2014,04,13,13,39,12.40
2014,04,13,13,40,12.40
2014,04,13,13,41,12.40
2014,04,13,13,42,12.40
2014,04,13,13,43,12.40
2014,04,13,13,44,12.40
2014,04,13,13,45,12.40
2014,04,13,13,46,12.40
2014,04,13,13,47,12.50
2014,04,13,13,48,12.50
2014,04,13,13,49,12.60
2014,04,13,13,50,12.60
2014,04,13,13,51,12.60
2014,04,13,13,52,12.60
2014,04,13,13,53,12.60
2014,04,13,13,54,12.70
2014,04,13,13,55,12.80
2014,04,13,13,56,12.90
2014,04,13,13,57,12.90
2014,04,13,13,58,12.90
2014,04,13,13,59,12.90
2014,04,13,14,00,12.90
2014,04,13,14,01,12.90
2014,04,13,14,02,13.00
2014,04,13,14,03,13.00
2014,04,13,14,04,13.00
2014,04,13,14,05,12.90
2014,04,13,14,06,12.90
2014,04,13,14,07,12.90
2014,04,13,14,08,12.90
2014,04,13,14,09,12.90
2014,04,13,14,10,12.90
2014,04,13,14,11,12.80
2014,04,13,14,12,12.80
2014,04,13,14,13,12.80
2014,04,13,14,14,12.80
2014,04,13,14,15,12.80
2014,04,13,14,16,12.70
2014,04,13,14,17,12.80
2014,04,13,14,18,12.80
2014,04,13,14,19,12.80
2014,04,13,14,20,12.80
2014,04,13,14,21,12.80
2014,04,13,14,22,12.80
2014,04,13,14,23,12.80
2014,04,13,14,24,12.80
2014,04,13,14,25,12.80
2014,04,13,14,26,12.80
2014,04,13,14,27,12.70
2014,04,13,14,28,12.70
2014,04,13,14,29,12.70
2014,04,13,14,30,12.80
2014,04,13,14,31,12.80
2014,04,13,14,32,12.90
2014,04,13,14,33,13.00
2014,04,13,14,34,13.00
2014,04,13,14,35,13.00
2014,04,13,14,36,13.00
2014,04,13,14,37,13.00
2014,04,13,14,38,13.00
2014,04,13,14,39,13.00
2014,04,13,14,40,13.00
2014,04,13,14,41,13.10
2014,04,13,14,42,13.10
2014,04,13,14,43,13.20
2014,04,13,14,44,13.20
2014,04,13,14,45,13.20
2014,04,13,14,46,13.20
2014,04,13,14,47,13.20
2014,04,13,14,48,13.20
2014,04,13,14,49,13.20
2014,04,13,14,50,13.20
2014,04,13,14,51,13.30
2014,04,13,14,52,13.30
2014,04,13,14,53,13.30
2014,04,13,14,54,13.30
2014,04,13,14,55,13.30
2014,04,13,14,56,13.30
2014,04,13,14,57,13.30
2014,04,13,14,58,13.30
2014,04,13,14,59,13.30
2014,04,13,15,00,13.30
2014,04,13,15,01,13.40
2014,04,13,15,02,13.40
2014,04,13,15,03,13.40
2014,04,13,15,04,13.40
2014,04,13,15,05,13.40
2014,04,13,15,06,13.40
2014,04,13,15,07,13.50
2014,04,13,15,08,13.60
2014,04,13,15,09,13.60
2014,04,13,15,10,13.60
2014,04,13,15,11,13.60
2014,04,13,15,12,13.60
2014,04,13,15,13,13.60
2014,04,13,15,14,13.60
2014,04,13,15,15,13.60
2014,04,13,15,16,13.60
2014,04,13,15,17,13.60
2014,04,13,15,18,13.50
2014,04,13,15,19,13.50
2014,04,13,15,20,13.50
2014,04,13,15,21,13.40
2014,04,13,15,22,13.40
2014,04,13,15,23,13.50
2014,04,13,15,24,13.50
2014,04,13,15,25,13.60
2014,04,13,15,26,13.60
2014,04,13,15,27,13.70
2014,04,13,15,28,13.70
2014,04,13,15,29,13.80
2014,04,13,15,30,13.80
2014,04,13,15,31,13.90
2014,04,13,15,32,13.90
2014,04,13,15,33,13.90
2014,04,13,15,34,13.90
2014,04,13,15,35,13.90
2014,04,13,15,36,13.80
2014,04,13,15,37,13.80
2014,04,13,15,38,13.90
2014,04,13,15,39,13.90
2014,04,13,15,40,14.00
2014,04,13,15,41,14.10
2014,04,13,15,42,14.10
2014,04,13,15,43,14.10
2014,04,13,15,44,14.10
2014,04,13,15,45,14.00
2014,04,13,15,46,14.00
2014,04,13,15,47,13.90
2014,04,13,15,48,13.90
2014,04,13,15,49,13.90
2014,04,13,15,50,14.00
2014,04,13,15,51,14.00
2014,04,13,15,52,14.00
2014,04,13,15,53,14.00
2014,04,13,15,54,14.00
2014,04,13,15,55,14.00
2014,04,13,15,56,14.00
2014,04,13,15,57,14.00
2014,04,13,15,58,14.00
2014,04,13,15,59,14.00
2014,04,13,16,00,13.90
2014,04,13,16,01,13.90
2014,04,13,16,02,13.90
2014,04,13,16,03,13.90
2014,04,13,16,04,13.90
2014,04,13,16,05,13.90
2014,04,13,16,06,13.90
2014,04,13,16,07,13.90
2014,04,13,16,08,13.90
2014,04,13,16,09,13.90
2014,04,13,16,10,13.90
2014,04,13,16,11,13.90
2014,04,13,16,12,13.90
2014,04,13,16,13,13.90
2014,04,13,16,14,13.90
2014,04,13,16,15,14.00
2014,04,13,16,16,14.00
2014,04,13,16,17,14.00
2014,04,13,16,18,14.10
2014,04,13,16,19,14.10
2014,04,13,16,20,14.20
2014,04,13,16,21,14.30
2014,04,13,16,22,14.50
2014,04,13,16,23,14.60
2014,04,13,16,24,14.70
2014,04,13,16,25,14.80
2014,04,13,16,26,14.80
2014,04,13,16,27,14.80
2014,04,13,16,28,14.80
2014,04,13,16,29,14.80
2014,04,13,16,30,14.80
2014,04,13,16,31,14.80
2014,04,13,16,32,14.70
2014,04,13,16,33,14.70
2014,04,13,16,34,14.60
2014,04,13,16,35,14.60
2014,04,13,16,36,14.60
2014,04,13,16,37,14.60
2014,04,13,16,38,14.60
2014,04,13,16,39,14.60
2014,04,13,16,40,14.70
2014,04,13,16,41,14.70
2014,04,13,16,42,14.70
2014,04,13,16,43,14.70
2014,04,13,16,44,14.70
2014,04,13,16,45,14.70
2014,04,13,16,46,14.70
2014,04,13,16,47,14.70
2014,04,13,16,48,14.70
2014,04,13,16,49,14.70
2014,04,13,16,50,14.70
2014,04,13,16,51,14.70
2014,04,13,16,52,14.70
2014,04,13,16,53,14.60
2014,04,13,16,54,14.60
2014,04,13,16,55,14.60
2014,04,13,16,56,14.70
2014,04,13,16,57,14.60
2014,04,13,16,58,14.60
2014,04,13,16,59,14.60
2014,04,13,17,00,14.60
2014,04,13,17,01,14.60
2014,04,13,17,02,14.60
2014,04,13,17,03,14.60
2014,04,13,17,04,14.60
2014,04,13,17,05,14.60
2014,04,13,17,06,14.60
2014,04,13,17,07,14.60
2014,04,13,17,08,14.50
2014,04,13,17,09,14.50
2014,04,13,17,10,14.50
2014,04,13,17,11,14.60
2014,04,13,17,12,14.70
2014,04,13,17,13,14.80
2014,04,13,17,14,14.90
2014,04,13,17,15,14.80
2014,04,13,17,16,14.80
2014,04,13,17,17,14.80
2014,04,13,17,18,14.80
2014,04,13,17,19,14.80
2014,04,13,17,20,14.80
2014,04,13,17,21,14.90
2014,04,13,17,22,14.90
2014,04,13,17,23,15.00
2014,04,13,17,24,15.00
2014,04,13,17,25,15.10
2014,04,13,17,26,15.10
2014,04,13,17,27,15.20
2014,04,13,17,28,15.10
2014,04,13,17,29,15.10
2014,04,13,17,30,15.00
2014,04,13,17,31,14.90
2014,04,13,17,32,14.90
2014,04,13,17,33,14.90
2014,04,13,17,34,14.80
2014,04,13,17,35,14.80
2014,04,13,17,36,14.80
2014,04,13,17,37,14.90
2014,04,13,17,38,14.90
2014,04,13,17,39,14.90
2014,04,13,17,40,14.90
2014,04,13,17,41,15.00
2014,04,13,17,42,15.00